DW5201 Weather Reports


time (UTC)temp
C
wind
direction
speed
KPH
gust
KPH
rain 1hr
cm
rain 24hr
cm
rain mn
cm
humidity
%
barometer
mb
20190420123207 22 123 3.2 0.0 0.00 0.00 0.00 25 1025.6
20190420121615 22 179 4.8 0.0 0.00 0.00 0.00 24 1025.8
20190420120056 22 124 3.2 0.0 0.00 0.00 0.00 25 1025.9
20190420114612 21 82 6.4 0.0 0.00 0.00 0.00 25 1026.0
20190420113116 22 160 3.2 0.0 0.00 0.00 0.00 26 1026.2
20190420111625 22 83 4.8 0.0 0.00 0.00 0.00 28 1026.3
20190420110105 21 356 4.8 0.0 0.00 0.00 0.00 30 1026.3
20190420104645 21 149 4.8 0.0 0.00 0.00 0.00 28 1026.6
20190420103102 20 146 4.8 0.0 0.00 0.00 0.00 29 1026.6
20190420101604 20 97 4.8 0.0 0.00 0.00 0.00 29 1026.7
20190420100049 20 114 6.4 0.0 0.00 0.00 0.00 27 1026.9
20190420094559 20 85 4.8 0.0 0.00 0.00 0.00 27 1026.9
20190420093040 19 256 1.6 0.0 0.00 0.00 0.00 35 1027.1
20190420091538 18 139 1.6 0.0 0.00 0.00 0.00 39 1027.1
20190420090026 18 137 3.2 0.0 0.00 0.00 0.00 39 1027.4
20190420084512 17 158 0.0 0.0 0.00 0.00 0.00 41 1027.6
20190420083031 17 156 1.6 0.0 0.00 0.00 0.00 44 1027.7
20190420081503 16 144 1.6 0.0 0.00 0.00 0.00 42 1027.7
20190420080219 16 232 0.0 0.0 0.00 0.00 0.00 41 1027.6
20190420074703 15 175 0.0 0.0 0.00 0.00 0.00 45 1027.6
20190420073202 15 248 0.0 0.0 0.00 0.00 0.00 43 1027.7
20190420071617 15 202 1.6 0.0 0.00 0.00 0.00 44 1027.6
20190420070136 13 148 0.0 0.0 0.00 0.00 0.00 44 1027.6
20190420064637 13 148 1.6 0.0 0.00 0.00 0.00 48 1027.6
20190420063110 13 183 0.0 0.0 0.00 0.00 0.00 50 1027.5
20190420061647 12 188 0.0 0.0 0.00 0.00 0.00 49 1027.6
20190420060049 12 198 0.0 0.0 0.00 0.00 0.00 49 1027.3
20190420054528 12 277 0.0 0.0 0.00 0.00 0.00 45 1027.3
20190420053041 12 271 0.0 0.0 0.00 0.00 0.00 45 1027.2
20190420051522 11 32 0.0 0.0 0.00 0.00 0.00 47 1027.2
20190420050021 11 65 0.0 0.0 0.00 0.00 0.00 46 1027.1
20190420044507 11 143 1.6 0.0 0.00 0.00 0.00 46 1027.0
20190420043008 11 112 1.6 0.0 0.00 0.00 0.00 45 1027.0
20190420041718 11 103 1.6 0.0 0.00 0.00 0.00 44 1026.9
20190420040140 11 60 0.0 0.0 0.00 0.00 0.00 44 1027.0
20190420034642 11 83 3.2 0.0 0.00 0.00 0.00 43 1026.9
20190420033158 11 99 1.6 0.0 0.00 0.00 0.00 45 1026.9
20190420031648 12 150 0.0 0.0 0.00 0.00 0.00 44 1026.9
20190420030208 12 114 1.6 0.0 0.00 0.00 0.00 41 1026.9
20190420024611 11 311 1.6 0.0 0.00 0.00 0.00 42 1027.0
20190420023152 11 134 1.6 0.0 0.00 0.00 0.00 43 1027.0
20190420021636 12 146 0.0 0.0 0.00 0.00 0.00 41 1027.0
20190420020340 13 338 3.2 0.0 0.00 0.00 0.00 36 1027.0
20190420014617 14 77 6.4 0.0 0.00 0.00 0.00 35 1027.0
20190420013118 14 92 9.7 0.0 0.00 0.00 0.00 35 1027.0
20190420011629 14 127 9.7 0.0 0.00 0.00 0.00 36 1027.0
20190420010103 15 82 9.7 0.0 0.00 0.00 0.00 35 1027.1
20190420004702 15 90 11.3 0.0 0.00 0.00 0.00 35 1027.2
20190420003124 15 90 11.3 0.0 0.00 0.00 0.00 35 1027.2
20190420001600 15 75 12.9 0.0 0.00 0.00 0.00 35 1027.3
20190420000043 15 100 12.9 0.0 0.00 0.00 0.00 35 1027.4
20190419234553 15 127 12.9 0.0 0.00 0.00 0.00 35 1027.5
20190419233024 15 91 11.3 0.0 0.00 0.00 0.00 35 1027.6
20190419231607 15 90 12.9 0.0 0.00 0.00 0.00 34 1027.7
20190419230028 15 94 11.3 0.0 0.00 0.00 0.00 34 1027.7
20190419224532 16 102 11.3 0.0 0.00 0.00 0.00 34 1027.7
20190419223015 16 66 11.3 0.0 0.00 0.00 0.00 34 1027.7
20190419221512 16 96 11.3 0.0 0.00 0.00 0.00 34 1027.8
20190419220010 16 99 11.3 0.0 0.00 0.00 0.00 33 1027.7
20190419214531 16 83 11.3 0.0 0.00 0.00 0.00 33 1027.6
20190419213014 16 67 9.7 0.0 0.00 0.00 0.00 33 1027.6
20190419211511 16 83 9.7 0.0 0.00 0.00 0.00 32 1027.5
20190419210005 16 98 12.9 0.0 0.00 0.00 0.00 32 1027.3
20190419204506 16 67 12.9 0.0 0.00 0.00 0.00 33 1027.3
20190419203011 16 90 8.0 0.0 0.00 0.00 0.00 34 1027.3
20190419201506 16 86 8.0 0.0 0.00 0.00 0.00 35 1027.4
20190419200008 16 87 4.8 0.0 0.00 0.00 0.00 36 1027.3
20190419194501 16 85 3.2 0.0 0.00 0.00 0.00 36 1027.4
20190419193000 16 79 3.2 0.0 0.00 0.00 0.00 37 1027.3
20190419191712 17 93 3.2 0.0 0.00 0.00 0.00 37 1027.3
20190419190206 17 91 3.2 0.0 0.00 0.00 0.00 35 1027.2
20190419184821 17 88 1.6 0.0 0.00 0.00 0.00 35 1027.1
20190419183135 17 83 1.6 0.0 0.00 0.00 0.00 35 1026.9
20190419181640 18 100 3.2 0.0 0.00 0.00 0.00 35 1026.7
20190419180204 18 95 0.0 0.0 0.00 0.00 0.00 34 1026.6
20190419174657 19 79 1.6 0.0 0.00 0.00 0.00 34 1026.5
20190419173332 20 129 3.2 0.0 0.00 0.00 0.00 33 1026.2
20190419171624 20 94 3.2 0.0 0.00 0.00 0.00 31 1026.2
20190419170139 21 79 3.2 0.0 0.00 0.00 0.00 30 1026.0
20190419164645 21 161 1.6 0.0 0.00 0.00 0.00 31 1026.0
20190419163137 21 150 3.2 0.0 0.00 0.00 0.00 30 1026.0
20190419161647 21 125 3.2 0.0 0.00 0.00 0.00 29 1026.0
20190419160139 21 106 3.2 0.0 0.00 0.00 0.00 30 1026.0
20190419154617 22 106 3.2 0.0 0.00 0.00 0.00 28 1026.0
20190419153129 22 94 3.2 0.0 0.00 0.00 0.00 28 1026.1
20190419151610 22 109 4.8 0.0 0.00 0.00 0.00 28 1026.2
20190419150118 22 179 6.4 0.0 0.00 0.00 0.00 29 1026.3
20190419144613 22 108 4.8 0.0 0.00 0.00 0.00 27 1026.4
20190419143143 22 92 4.8 0.0 0.00 0.00 0.00 27 1026.4
20190419141605 22 150 4.8 0.0 0.00 0.00 0.00 27 1026.6
20190419140127 22 253 4.8 0.0 0.00 0.00 0.00 27 1026.8
20190419134705 22 95 6.4 0.0 0.00 0.00 0.00 28 1026.8
20190419133238 22 112 4.8 0.0 0.00 0.00 0.00 27 1026.9
20190419131642 21 115 6.4 0.0 0.00 0.00 0.00 28 1027.0
20190419130103 21 106 6.4 0.0 0.00 0.00 0.00 27 1027.1
20190419124639 21 112 8.0 0.0 0.00 0.00 0.00 27 1027.5